1514926801.15,36213,6.56,72306.8,-11.19,-14.61,-15.49,0,*66
1514926802.38,36214,6.56,72328.5,-11.19,-14.79,-15.99,0,*65
1514926803.65,36215,6.56,72330.3,-11.21,-15.35,-16.83,0,*6E
1514926804.94,36216,6.56,72328.8,-11.21,-15.81,-17.03,0,*6B
1514926806.23,36217,6.5,72320.3,-11.21,-16.23,-17.17,0,*64
1514926807.52,36218,6.56,72332.3,-11.21,-16.13,-17.41,0,*6B
1514926808.78,36219,6.56,72332.8,-11.21,-16.83,-18.59,0,*65
1514926810.05,36220,6.56,72322.3,-11.21,-17.59,-19.13,0,*66
1514926811.31,36221,6.56,72316.5,-11.21,-17.73,-18.93,0,*66
1514926812.55,36222,6.56,72312.3,-11.21,-17.87,-18.69,0,*6B
1514926813.78,36223,6.56,72322.3,-11.23,-17.93,-18.79,0,*6C
1514926815.0,36224,6.56,72310.3,-11.23,-17.83,-18.65,0,*67
1514926816.24,36225,6.56,72298.5,-11.23,-17.55,-18.79,0,*60
1514926817.47,36226,6.5,72318.5,-11.23,-17.73,-19.23,0,*69
1514926818.74,36227,6.56,72310.0,-11.25,-18.35,-19.91,0,*6A
1514926820.03,36228,6.56,72284.8,-11.25,-18.35,-19.41,0,*68
1514926821.26,36229,6.56,72272.0,-11.23,-17.69,-18.59,0,*61
1514926822.5,36230,6.56,72268.0,-11.25,-18.21,-19.17,0,*67
1514926823.74,36231,6.5,72278.0,-11.25,-18.49,-20.05,0,*61
1514926825.04,36232,6.56,72298.0,-11.25,-19.31,-20.53,0,*6F
1514926826.32,36233,6.56,72302.0,-11.23,-19.23,-19.65,0,*64
1514926827.58,36234,6.5,72346.0,-11.25,-19.03,-19.31,0,*66
1514926828.82,36235,6.56,72324.8,-11.27,-19.03,-19.27,0,*62
1514926830.07,36236,6.56,72308.0,-11.27,-18.49,-17.97,0,*6B
1514926831.34,36237,6.56,72322.5,-11.31,-17.55,-17.11,0,*61
1514926832.58,36238,6.5,72328.5,-11.27,-16.79,-17.03,0,*65
1514926833.85,36239,6.56,72332.3,-11.31,-17.11,-17.11,0,*6F
1514926835.1,36240,6.56,72308.8,-11.27,-16.69,-16.41,0,*6C
1514926836.37,36241,6.56,72304.8,-11.27,-16.31,-16.17,0,*63
1514926837.64,36242,6.56,72312.5,-11.27,-16.13,-16.17,0,*60
1514926838.89,36243,6.56,72318.5,-11.27,-15.89,-16.55,0,*67
1514926840.14,36244,6.5,72314.5,-11.31,-16.09,-16.83,0,*67
1514926841.38,36245,6.56,72304.5,-11.27,-16.03,-16.69,0,*6F
1514926842.61,36246,6.5,72330.5,-11.31,-15.75,-16.59,0,*6A
1514926843.83,36247,6.56,72328.3,-11.27,-15.67,-16.41,0,*66
1514926845.07,36248,6.56,72330.5,-11.31,-15.63,-16.65,0,*6C
1514926846.29,36249,6.56,72324.0,-11.31,-15.75,-16.97,0,*67
1514926847.53,36250,6.5,72320.3,-11.31,-16.09,-16.97,0,*67
1514926848.78,36251,6.56,72320.5,-11.27,-16.41,-16.69,0,*6C
1514926850.06,36252,6.56,72316.0,-11.27,-15.85,-16.13,0,*69
1514926851.32,36253,6.56,72314.0,-11.27,-15.57,-16.13,0,*67
1514926852.56,36254,6.56,72312.0,-11.31,-15.71,-17.25,0,*67
1514926853.83,36255,6.56,72346.5,-11.31,-16.09,-17.55,0,*6D
1514926855.07,36256,6.56,72332.8,-11.31,-16.09,-18.25,0,*66
1514926856.33,36257,6.56,72334.8,-11.27,-17.17,-19.95,0,*64
1514926857.57,36258,6.56,72336.0,-11.31,-17.63,-20.59,0,*65
1514926858.79,36259,6.56,72330.0,-11.31,-19.03,-22.03,0,*61
1514926860.05,36260,6.56,72332.0,-11.31,-20.53,-23.29,0,*6D
1514926861.29,36261,6.56,72336.0,-11.31,-21.83,-23.89,0,*6A
1514926862.55,36262,6.5,72334.5,-11.33,-21.97,-23.39,0,*65
1514926863.76,36263,6.56,72334.3,-11.35,-21.09,-22.87,0,*61
1514926865.0,36264,6.5,72322.3,-11.35,-20.83,-22.53,0,*6C
1514926866.25,36265,6.56,72338.5,-11.33,-20.93,-23.09,0,*64
1514926867.52,36266,6.5,72334.8,-11.35,-21.87,-23.33,0,*6C
1514926868.76,36267,6.56,72326.0,-11.35,-21.09,-22.17,0,*6C
1514926870.0,36268,6.56,72324.3,-11.35,-20.63,-21.57,0,*69
1514926871.24,36269,6.5,72302.3,-11.35,-20.05,-21.27,0,*6F
1514926872.48,36270,6.56,72298.8,-11.37,-19.91,-21.43,0,*60
1514926873.7,36271,6.56,72326.3,-11.39,-19.91,-21.77,0,*68
1514926874.94,36272,6.56,72330.0,-11.39,-20.19,-21.77,0,*61
1514926876.18,36273,6.56,72324.5,-11.39,-20.19,-21.47,0,*63
1514926877.43,36274,6.56,72328.0,-11.39,-19.95,-21.33,0,*69
1514926878.64,36275,6.56,72330.3,-11.39,-20.05,-21.43,0,*6C
1514926879.89,36276,6.56,72340.3,-11.39,-19.91,-20.99,0,*6E
1514926881.16,36277,6.56,72328.5,-11.39,-19.61,-19.27,0,*6F
1514926882.41,36278,6.56,72324.0,-11.39,-18.35,-18.21,0,*67
1514926883.65,36279,6.5,72300.3,-11.39,-17.79,-17.87,0,*62
1514926884.86,36280,6.56,72312.8,-11.41,-17.31,-17.49,0,*65
1514926886.1,36281,6.56,72326.0,-11.41,-16.69,-16.59,0,*68
1514926887.36,36282,6.56,72326.5,-11.43,-15.49,-15.43,0,*60
1514926888.6,36283,6.5,72322.3,-11.41,-14.65,-15.39,0,*61
1514926889.8,36284,6.5,72302.3,-11.41,-14.69,-15.95,0,*6C
1514926891.02,36285,6.56,72316.3,-11.41,-15.29,-16.55,0,*67
1514926892.25,36286,6.5,72322.3,-11.41,-15.81,-16.59,0,*6A
1514926893.49,36287,6.5,72340.5,-11.41,-16.13,-16.93,0,*65
1514926894.75,36288,6.56,72358.0,-11.41,-15.85,-16.69,0,*63
1514926895.98,36289,6.56,72332.0,-11.41,-15.99,-17.03,0,*62
1514926897.2,36290,6.56,72330.3,-11.39,-16.55,-17.73,0,*61
1514926898.45,36291,6.56,72316.8,-11.39,-16.59,-17.63,0,*6D
1514926899.73,36292,6.56,72306.0,-11.43,-16.65,-17.25,0,*6E
1514926900.97,36293,6.56,72298.5,-11.41,-16.83,-17.59,0,*6E
1514926902.2,36294,6.56,72306.8,-11.41,-16.69,-16.89,0,*61
1514926903.42,36295,6.56,72300.5,-11.39,-16.45,-17.31,0,*63
1514926904.69,36296,6.56,72320.0,-11.41,-16.17,-17.97,0,*64
1514926905.92,36297,6.56,72332.8,-11.41,-17.49,-19.31,0,*6D
1514926907.16,36298,6.56,72302.0,-11.41,-18.35,-19.47,0,*67
1514926908.38,36299,6.56,72314.8,-11.41,-17.93,-18.25,0,*60
1514926909.65,36300,6.5,72314.8,-11.41,-17.21,-17.59,0,*6C
1514926910.88,36301,6.5,72322.8,-11.43,-16.59,-17.31,0,*6F
1514926912.09,36302,6.56,72322.3,-11.41,-16.45,-16.59,0,*6C
1514926913.36,36303,6.56,72296.3,-11.43,-15.29,-15.21,0,*6A
1514926914.62,36304,6.56,72294.0,-11.37,-14.61,-14.75,0,*63
1514926915.88,36305,6.56,72290.5,-11.41,-14.43,-14.93,0,*6B
1514926917.13,36306,6.5,72294.0,-11.41,-14.51,-15.25,0,*67
1514926918.38,36307,6.56,72302.0,-11.41,-14.51,-15.15,0,*65
1514926919.64,36308,6.56,72296.8,-11.41,-14.55,-15.43,0,*6D
1514926920.85,36309,6.56,72318.3,-11.41,-14.69,-15.95,0,*68
1514926922.08,36310,6.56,72330.3,-11.41,-15.07,-16.13,0,*64
1514926923.28,36311,6.56,72310.0,-11.41,-15.29,-16.45,0,*6A
1514926924.5,36312,6.5,72308.5,-11.41,-15.71,-17.35,0,*62
1514926925.72,36313,6.5,72318.5,-11.39,-16.45,-18.41,0,*64
1514926926.99,36314,6.5,72326.3,-11.39,-17.07,-18.35,0,*67
1514926928.21,36315,6.5,72338.5,-11.39,-17.49,-18.41,0,*6F
1514926929.48,36316,6.5,72336.3,-11.39,-18.35,-19.31,0,*6E
1514926930.69,36317,6.5,72340.5,-11.41,-18.69,-19.75,0,*69
1514926931.91,36318,6.56,72324.8,-11.41,-19.17,-19.91,0,*64
1514926933.18,36319,6.5,72314.5,-11.39,-19.31,-19.85,0,*6B
1514926934.41,36320,6.56,72324.0,-11.41,-18.99,-18.89,0,*60
1514926935.62,36321,6.56,72334.5,-11.41,-18.25,-17.87,0,*67
1514926936.91,36322,6.5,72336.5,-11.43,-17.55,-17.17,0,*67
1514926938.11,36323,6.56,72334.0,-11.41,-16.89,-16.93,0,*69
1514926939.35,36324,6.56,72326.5,-11.41,-16.59,-17.03,0,*6B
1514926940.58,36325,6.5,72316.8,-11.41,-16.69,-17.31,0,*68
1514926941.82,36326,6.56,72324.0,-11.41,-16.69,-17.49,0,*64
1514926943.06,36327,6.56,72298.8,-11.41,-16.59,-17.59,0,*67
1514926944.33,36328,6.5,72296.0,-11.43,-16.45,-17.07,0,*6C
1514926945.53,36329,6.5,72280.3,-11.41,-16.45,-16.89,0,*68
1514926946.77,36330,6.5,72286.8,-11.41,-16.45,-16.65,0,*62
1514926948.0,36331,6.5,72280.3,-11.41,-16.17,-15.99,0,*64
1514926949.27,36332,6.56,72284.3,-11.41,-15.85,-15.39,0,*65
1514926950.48,36333,6.56,72304.8,-11.39,-15.07,-14.69,0,*65
1514926951.72,36334,6.56,72312.8,-11.41,-14.79,-14.65,0,*69
1514926952.94,36335,6.56,72310.3,-11.41,-14.65,-14.43,0,*61
1514926954.18,36336,6.56,72306.0,-11.43,-14.33,-14.11,0,*64
1514926955.39,36337,6.56,72328.0,-11.41,-14.15,-14.11,0,*63
1514926956.6,36338,6.5,72316.0,-11.41,-14.11,-14.29,0,*63
1514926957.87,36339,6.5,72308.5,-11.39,-14.05,-14.43,0,*64
1514926959.14,36340,6.5,72302.0,-11.41,-14.05,-14.55,0,*62
1514926960.39,36341,6.56,72310.5,-11.41,-14.15,-14.79,0,*6C
1514926961.6,36342,6.5,72316.8,-11.41,-14.37,-14.69,0,*6E
1514926962.85,36343,6.56,72314.0,-11.39,-14.29,-14.83,0,*6B
1514926964.12,36344,6.5,72322.0,-11.37,-14.37,-15.39,0,*6D
1514926965.36,36345,6.56,72330.3,-11.39,-14.69,-15.85,0,*6E
1514926966.64,36346,6.5,72302.8,-11.39,-14.55,-15.39,0,*65
1514926967.91,36347,6.5,72290.8,-11.41,-14.43,-14.83,0,*6C
1514926969.15,36348,6.5,72266.3,-11.39,-14.29,-14.93,0,*61
1514926970.4,36349,6.56,72270.5,-11.39,-14.37,-14.97,0,*6B
1514926971.66,36350,6.56,72274.8,-11.39,-14.55,-15.29,0,*63
1514926972.91,36351,6.5,72320.3,-11.39,-14.65,-15.81,0,*63
1514926974.17,36352,6.5,72316.8,-11.37,-15.07,-16.69,0,*6E
1514926975.42,36353,6.56,72316.0,-11.39,-15.71,-17.59,0,*62
1514926976.67,36354,6.5,72302.0,-11.39,-16.03,-17.97,0,*61
1514926977.91,36355,6.5,72292.3,-11.39,-17.03,-19.75,0,*63
1514926979.16,36356,6.56,72326.3,-11.39,-17.79,-20.39,0,*6F
1514926980.44,36357,6.5,72324.0,-11.39,-19.31,-21.33,0,*67
1514926981.68,36358,6.56,72300.8,-11.39,-20.09,-21.27,0,*6C
1514926982.93,36359,6.5,72314.8,-11.39,-19.71,-20.99,0,*6C
1514926984.18,36360,6.5,72312.5,-11.41,-19.57,-20.39,0,*67
1514926985.41,36361,6.5,72312.5,-11.41,-19.13,-20.39,0,*66
1514926986.7,36362,6.56,72326.0,-11.43,-19.31,-19.65,0,*64
1514926987.98,36363,6.5,72318.0,-11.43,-17.93,-17.93,0,*64
1514926989.24,36364,6.5,72306.8,-11.43,-17.55,-18.45,0,*6D
1514926990.53,36365,6.5,72316.8,-11.43,-17.25,-18.01,0,*6B
1514926991.77,36366,6.5,72328.0,-11.41,-16.79,-17.41,0,*69
1514926993.06,36367,6.5,72324.8,-11.43,-17.07,-17.07,0,*60
1514926994.35,36368,6.56,72326.5,-11.43,-16.31,-16.17,0,*6B
1514926995.57,36369,6.56,72312.0,-11.41,-15.15,-15.53,0,*6E
1514926996.84,36370,6.5,72302.5,-11.43,-14.43,-15.29,0,*6B
1514926998.09,36371,6.5,72296.8,-11.41,-14.51,-15.29,0,*6B
1514926999.38,36372,6.56,72290.3,-11.43,-14.55,-14.97,0,*6A
1514927000.67,36373,6.5,72280.0,-11.43,-14.55,-14.83,0,*6E
1514927001.96,36374,6.56,72272.8,-11.43,-14.75,-14.83,0,*6B
1514927003.22,36375,6.56,72282.5,-11.41,-14.79,-14.83,0,*64
1514927004.48,36376,6.56,72318.0,-11.43,-14.89,-14.75,0,*63
1514927005.71,36377,6.5,72310.0,-11.41,-14.43,-14.29,0,*6F
1514927006.93,36378,6.5,72308.0,-11.41,-14.11,-14.37,0,*68
1514927008.17,36379,6.5,72306.0,-11.41,-14.11,-14.55,0,*6D
1514927009.41,36380,6.5,72320.0,-11.41,-14.29,-14.83,0,*6B
1514927010.62,36381,6.56,72312.5,-11.41,-14.23,-15.15,0,*6E
1514927011.89,36382,6.56,72330.3,-11.41,-14.43,-15.39,0,*65
1514927013.12,36383,6.5,72358.8,-11.43,-14.69,-15.71,0,*62
1514927014.38,36384,6.5,72334.8,-11.43,-15.15,-16.51,0,*6E
1514927015.6,36385,6.56,72318.3,-11.41,-15.71,-17.35,0,*6C
1514927016.83,36386,6.56,72310.8,-11.41,-16.69,-18.49,0,*61
1514927018.04,36387,6.56,72320.0,-11.41,-17.35,-18.69,0,*6A
1514927019.29,36388,6.5,72326.5,-11.43,-16.75,-17.83,0,*69
1514927020.52,36389,6.5,72318.8,-11.41,-16.69,-18.07,0,*64
1514927021.76,36390,6.5,72316.5,-11.41,-16.69,-18.07,0,*6C
1514927023.02,36391,6.5,72318.5,-11.43,-16.51,-17.69,0,*63
1514927024.23,36392,6.56,72336.3,-11.41,-16.59,-18.21,0,*69
1514927025.46,36393,6.5,72324.8,-11.41,-17.87,-18.89,0,*68
1514927026.75,36394,6.5,72320.8,-11.43,-17.63,-18.01,0,*67
1514927027.98,36395,6.56,72324.3,-11.41,-16.75,-17.45,0,*6D
1514927029.25,36396,6.5,72302.5,-11.43,-17.35,-17.11,0,*68
1514927030.52,36397,6.56,72312.8,-11.41,-16.17,-15.43,0,*6F
1514927031.75,36398,6.56,72318.0,-11.41,-15.01,-15.29,0,*68
1514927033.01,36399,6.5,72314.0,-11.43,-14.89,-16.51,0,*66
1514927034.24,36400,6.5,72326.3,-11.43,-16.37,-18.17,0,*6A
1514927035.51,36401,6.5,72314.0,-11.43,-16.59,-17.55,0,*6A
1514927036.77,36402,6.5,72332.5,-11.43,-16.51,-17.69,0,*6E
1514927038.05,36403,6.5,72302.5,-11.43,-17.55,-19.23,0,*6A
1514927039.29,36404,6.56,72312.3,-11.43,-17.69,-17.83,0,*66
1514927040.52,36405,6.56,72326.5,-11.41,-15.81,-15.99,0,*68
1514927041.81,36406,6.56,72310.3,-11.43,-15.35,-15.43,0,*61
1514927043.07,36407,6.56,72302.3,-11.43,-15.15,-14.97,0,*6A
1514927044.37,36408,6.56,72304.5,-11.43,-14.47,-14.47,0,*6E
1514927045.62,36409,6.56,72318.5,-11.41,-14.05,-14.15,0,*6C
1514927046.91,36410,6.56,72328.3,-11.43,-13.87,-14.01,0,*6E
1514927048.17,36411,6.56,72326.3,-11.43,-13.69,-13.97,0,*67
1514927049.44,36412,6.56,72294.3,-11.43,-13.73,-14.01,0,*67
1514927050.7,36413,6.56,72248.0,-11.43,-13.69,-14.01,0,*6D
1514927051.99,36414,6.56,72268.0,-11.43,-13.61,-13.97,0,*6A
1514927053.2,36415,6.56,72296.5,-11.41,-13.55,-14.23,0,*66
1514927054.46,36416,6.5,72306.0,-11.43,-13.61,-14.69,0,*6E
1514927055.75,36417,6.56,72320.8,-11.43,-13.87,-14.97,0,*66
1514927056.99,36418,6.5,72322.5,-11.41,-14.23,-16.27,0,*6B
1514927058.22,36419,6.5,72334.0,-11.41,-15.71,-18.55,0,*67
1514927059.51,36420,6.5,72322.3,-11.39,-17.07,-19.57,0,*62
1514927060.77,36421,6.5,72316.8,-11.39,-17.59,-19.31,0,*68
1514927062.01,36422,6.5,72308.0,-11.41,-17.87,-19.85,0,*68
1514927063.24,36423,6.5,72310.8,-11.41,-18.83,-20.79,0,*6B
1514927064.49,36424,6.5,72306.3,-11.39,-19.31,-20.69,0,*6A
1514927065.73,36425,6.56,72310.3,-11.41,-19.03,-20.49,0,*67
1514927066.95,36426,6.56,72314.8,-11.41,-18.65,-20.09,0,*61
1514927068.23,36427,6.5,72348.3,-11.43,-18.59,-19.31,0,*6C
1514927069.47,36428,6.5,72352.5,-11.43,-19.37,-19.37,0,*6C
1514927070.72,36429,6.56,72354.5,-11.43,-19.17,-17.69,0,*6A
1514927071.95,36430,6.5,72334.5,-11.45,-16.93,-16.23,0,*68
1514927073.24,36431,6.5,72294.5,-11.43,-15.85,-15.89,0,*68
1514927074.48,36432,6.5,72278.3,-11.43,-15.71,-15.71,0,*67
1514927075.71,36433,6.5,72248.5,-11.41,-15.39,-15.71,0,*68
1514927077.0,36434,6.5,72268.8,-11.43,-15.35,-16.09,0,*6D
1514927078.21,36435,6.56,72288.5,-11.41,-15.75,-16.89,0,*62
1514927079.47,36436,6.5,72304.5,-11.43,-16.03,-17.11,0,*61
1514927080.76,36437,6.5,72336.3,-11.43,-16.17,-17.63,0,*60
1514927082.0,36438,6.5,72334.5,-11.43,-16.75,-18.45,0,*60
1514927083.26,36439,6.5,72312.5,-11.43,-17.35,-18.59,0,*69
1514927084.47,36440,6.56,72300.8,-11.45,-17.35,-18.73,0,*69
1514927085.73,36441,6.5,72258.5,-11.43,-17.49,-18.55,0,*61
1514927087.03,36442,6.5,72274.0,-11.43,-17.07,-17.97,0,*69
1514927088.26,36443,6.5,72308.0,-11.43,-16.75,-17.69,0,*6D
1514927089.53,36444,6.56,72334.3,-11.43,-16.75,-17.79,0,*6B
1514927090.76,36445,6.5,72344.0,-11.45,-17.25,-18.41,0,*6C
1514927092.05,36446,6.56,72354.5,-11.47,-17.59,-19.27,0,*67
1514927093.27,36447,6.5,72340.5,-11.45,-18.41,-19.37,0,*63
1514927094.53,36448,6.5,72330.0,-11.45,-18.31,-18.59,0,*62
1514927095.81,36449,6.5,72326.0,-11.43,-18.01,-19.31,0,*69
1514927097.05,36450,6.5,72320.3,-11.43,-18.73,-20.69,0,*63
1514927098.31,36451,6.5,72328.3,-11.47,-20.15,-21.93,0,*69
1514927099.55,36452,6.5,72334.5,-11.45,-21.23,-22.97,0,*6B
1514927100.85,36453,6.56,72332.0,-11.47,-21.23,-22.47,0,*65
1514927102.09,36454,6.5,72318.0,-11.47,-20.59,-21.73,0,*6A
1514927103.37,36455,6.5,72310.0,-11.47,-19.57,-20.93,0,*60
1514927104.61,36456,6.56,72320.3,-11.47,-19.37,-21.13,0,*6C
1514927105.87,36457,6.56,72330.8,-11.47,-19.85,-21.13,0,*64
1514927107.14,36458,6.5,72316.8,-11.47,-19.41,-20.43,0,*67
1514927108.4,36459,6.56,72294.5,-11.47,-18.89,-19.71,0,*68
1514927109.64,36460,6.5,72294.8,-11.47,-18.17,-18.99,0,*62
1514927110.87,36461,6.5,72294.8,-11.49,-17.69,-18.35,0,*6D
1514927112.11,36462,6.5,72292.5,-11.49,-16.93,-17.59,0,*6F
1514927113.35,36463,6.56,72310.3,-11.49,-16.65,-17.69,0,*64
1514927114.57,36464,6.5,72318.3,-11.49,-16.55,-18.45,0,*61
1514927115.83,36465,6.5,72330.8,-11.51,-17.49,-21.03,0,*6D
1514927117.08,36466,6.5,72330.8,-11.49,-19.81,-23.29,0,*67
1514927118.32,36467,6.56,72330.5,-11.49,-20.49,-22.53,0,*64
1514927119.56,36468,6.5,72346.8,-11.51,-19.71,-21.63,0,*63
1514927120.82,36469,6.5,72336.3,-11.51,-21.03,-22.37,0,*6E
1514927122.08,36470,6.5,72328.3,-11.51,-20.93,-21.87,0,*66
1514927123.37,36471,6.5,72332.8,-11.51,-20.35,-20.49,0,*68
1514927124.61,36472,6.56,72332.0,-11.51,-18.79,-19.13,0,*6D
1514927125.87,36473,6.5,72324.5,-11.51,-17.73,-18.01,0,*6B
1514927127.13,36474,6.5,72326.8,-11.51,-16.69,-16.89,0,*68
1514927128.4,36475,6.5,72316.8,-11.51,-16.09,-16.59,0,*62
1514927129.67,36476,6.5,72308.8,-11.51,-15.81,-16.75,0,*6C
1514927130.93,36477,6.5,72268.0,-11.51,-16.13,-16.97,0,*69
1514927132.16,36478,6.5,72304.3,-11.51,-15.99,-15.67,0,*6B
1514927133.4,36479,6.5,72300.3,-11.49,-15.35,-15.63,0,*61
1514927134.69,36480,6.5,72302.8,-11.51,-15.39,-17.07,0,*62
1514927135.93,36481,6.56,72316.5,-11.51,-16.75,-19.91,0,*69
1514927137.17,36482,6.5,72312.8,-11.51,-18.07,-21.13,0,*60
1514927138.46,36483,6.5,72314.5,-11.51,-18.93,-21.27,0,*6B
1514927139.73,36484,6.5,72314.5,-11.51,-18.99,-20.83,0,*69
1514927140.99,36485,6.5,72318.3,-11.51,-18.83,-20.35,0,*6E
1514927142.25,36486,6.5,72322.5,-11.51,-19.85,-21.13,0,*6F
1514927143.5,36487,6.5,72318.0,-11.51,-19.99,-20.39,0,*6A
1514927144.76,36488,6.5,72316.0,-11.51,-19.61,-20.09,0,*61
1514927146.0,36489,6.5,72312.0,-11.51,-19.47,-19.17,0,*61
1514927147.26,36490,6.5,72320.0,-11.51,-18.49,-17.79,0,*60
1514927148.53,36491,6.5,72330.3,-11.57,-17.93,-16.65,0,*63
1514927149.76,36492,6.56,72316.3,-11.55,-15.99,-15.67,0,*6B
1514927151.0,36493,6.5,72288.5,-11.55,-15.67,-15.95,0,*66
1514927152.27,36494,6.5,72292.5,-11.55,-15.53,-16.17,0,*6F
1514927153.51,36495,6.5,72300.5,-11.55,-15.53,-15.67,0,*6A
1514927154.77,36496,6.56,72288.5,-11.55,-14.93,-15.07,0,*62
1514927156.03,36497,6.5,72262.5,-11.55,-13.83,-14.11,0,*63
1514927157.28,36498,6.5,72250.3,-11.55,-13.51,-13.65,0,*67
1514927158.52,36499,6.5,72248.0,-11.49,-13.29,-13.51,0,*63
1514927159.77,36500,6.56,72328.0,-11.51,-13.37,-14.11,0,*67
1514927161.04,36501,6.5,72300.0,-11.51,-13.93,-14.83,0,*63
1514927162.31,36502,6.5,72274.3,-11.51,-14.05,-14.89,0,*62
1514927163.52,36503,6.5,72280.5,-11.49,-14.37,-16.41,0,*6D
1514927164.76,36504,6.56,72324.3,-11.49,-15.81,-17.69,0,*6D
1514927165.98,36505,6.5,72328.5,-11.49,-16.55,-18.21,0,*65
1514927167.22,36506,6.5,72310.3,-11.49,-17.03,-17.87,0,*67
1514927168.45,36507,6.5,72304.0,-11.49,-16.51,-17.31,0,*6D
1514927169.72,36508,6.56,72308.0,-11.51,-16.59,-17.59,0,*6D
1514927170.98,36509,6.5,72322.0,-11.49,-16.51,-17.55,0,*61
1514927172.22,36510,6.5,72318.5,-11.49,-17.17,-18.07,0,*62
1514927173.43,36511,6.56,72296.3,-11.49,-17.31,-17.73,0,*6B
1514927174.67,36512,6.5,72278.5,-11.49,-16.41,-17.17,0,*6C
1514927175.88,36513,6.56,72282.0,-11.49,-16.03,-17.31,0,*6F
1514927177.13,36514,6.5,72314.8,-11.49,-16.51,-18.59,0,*6E
1514927178.37,36515,6.5,72306.0,-11.49,-17.69,-20.35,0,*64
1514927179.63,36516,6.5,72310.5,-11.49,-19.23,-21.53,0,*66
1514927180.85,36517,6.5,72296.5,-11.49,-19.99,-21.13,0,*62
1514927182.05,36518,6.5,72322.8,-11.49,-20.29,-21.93,0,*64
1514927183.27,36519,6.5,72322.0,-11.49,-21.93,-22.07,0,*6B
1514927184.5,36520,6.5,72308.8,-11.51,-19.75,-19.75,0,*66
1514927185.77,36521,6.5,72314.3,-11.51,-18.79,-19.61,0,*6F
1514927187.01,36522,6.5,72300.8,-11.49,-19.07,-19.81,0,*63
1514927188.27,36523,6.5,72308.5,-11.51,-18.93,-19.17,0,*68
1514927189.5,36524,6.5,72298.8,-11.51,-18.07,-18.25,0,*62
1514927190.76,36525,6.5,72272.5,-11.51,-17.35,-18.55,0,*6A
1514927192.02,36526,6.56,72256.3,-11.51,-17.59,-18.79,0,*6D
1514927193.28,36527,6.5,72266.3,-11.51,-17.35,-18.55,0,*68
1514927194.57,36528,6.5,72244.3,-11.51,-17.93,-18.93,0,*61
1514927195.8,36529,6.5,72298.0,-11.51,-17.73,-18.83,0,*6F
1514927197.03,36530,6.5,72298.3,-11.51,-18.07,-18.79,0,*6E
1514927198.26,36531,6.56,72324.3,-11.55,-18.49,-18.41,0,*6A
1514927199.5,36532,6.5,72308.0,-11.57,-18.11,-17.93,0,*66
1514927200.79,36533,6.56,72296.3,-11.55,-17.59,-17.79,0,*62
1514927202.03,36534,6.5,72306.3,-11.55,-17.35,-17.49,0,*6C
1514927203.27,36535,6.5,72296.5,-11.51,-16.75,-16.75,0,*62
1514927204.54,36536,6.5,72292.5,-11.55,-16.17,-16.75,0,*61
1514927205.81,36537,6.5,72274.3,-11.55,-16.55,-17.17,0,*63
1514927207.07,36538,6.5,72272.8,-11.55,-16.89,-17.63,0,*6E
1514927208.33,36539,6.5,72298.0,-11.55,-16.97,-17.93,0,*6F
1514927209.63,36540,6.5,72316.0,-11.55,-17.17,-17.93,0,*68
1514927210.86,36541,6.5,72300.5,-11.51,-17.31,-18.21,0,*6F
1514927212.1,36542,6.5,72304.8,-11.51,-17.73,-18.07,0,*6E
1514927213.37,36543,6.5,72306.8,-11.51,-17.79,-18.55,0,*62
1514927214.62,36544,6.5,72314.8,-11.51,-18.69,-19.99,0,*6A
1514927215.88,36545,6.5,72328.0,-11.51,-19.31,-19.75,0,*65
1514927217.15,36546,6.5,72272.5,-11.55,-19.13,-18.55,0,*61
1514927218.42,36547,6.5,72246.0,-11.55,-18.49,-17.79,0,*6F
1514927219.71,36548,6.5,72262.5,-11.55,-17.59,-17.03,0,*63
1514927220.97,36549,6.5,72260.5,-11.55,-16.69,-16.55,0,*62
1514927222.24,36550,6.5,72306.5,-11.55,-16.13,-16.45,0,*66
1514927223.48,36551,6.5,72264.3,-11.57,-15.89,-16.75,0,*66
1514927224.77,36552,6.5,72254.5,-11.55,-16.69,-18.55,0,*66
1514927226.01,36553,6.5,72272.8,-11.57,-17.55,-19.17,0,*6C
1514927227.29,36554,6.56,72290.8,-11.55,-17.79,-19.31,0,*63
1514927228.56,36555,6.5,72296.3,-11.55,-18.11,-19.27,0,*64
1514927229.8,36556,6.5,72306.5,-11.55,-18.07,-18.41,0,*61
1514927231.08,36557,6.5,72306.8,-11.55,-17.79,-17.59,0,*60
1514927232.35,36558,6.5,72290.5,-11.55,-16.97,-16.69,0,*6C
1514927233.62,36559,6.5,72304.3,-11.55,-16.27,-16.75,0,*6B
1514927234.9,36560,6.5,72298.8,-11.55,-16.31,-17.63,0,*60
1514927236.17,36561,6.5,72306.0,-11.57,-17.07,-18.31,0,*6F
1514927237.43,36562,6.5,72334.0,-11.55,-17.63,-18.65,0,*6D
1514927238.67,36563,6.5,72314.0,-11.57,-18.55,-19.95,0,*6A
1514927239.92,36564,6.5,72312.5,-11.57,-19.65,-20.89,0,*68
1514927241.16,36565,6.5,72316.0,-11.57,-21.39,-22.31,0,*6A
1514927242.41,36566,6.56,72320.3,-11.57,-21.53,-21.93,0,*6E
1514927243.64,36567,6.5,72322.3,-11.57,-21.77,-21.97,0,*6D
1514927244.89,36568,6.5,72328.0,-11.57,-21.23,-20.89,0,*6D
1514927246.1,36569,6.5,72320.0,-11.57,-20.05,-19.37,0,*66
1514927247.36,36570,6.5,72298.3,-11.59,-18.55,-18.25,0,*6C
1514927248.62,36571,6.5,72304.3,-11.59,-17.79,-17.49,0,*69
1514927249.86,36572,6.56,72290.3,-11.57,-16.75,-16.65,0,*66
1514927251.09,36573,6.5,72236.8,-11.57,-16.37,-16.51,0,*66
1514927252.35,36574,6.5,72258.5,-11.57,-16.31,-16.65,0,*60
1514927253.61,36575,6.56,72306.8,-11.59,-16.31,-16.79,0,*62
1514927254.88,36576,6.5,72302.3,-11.59,-16.45,-17.03,0,*6E
1514927256.18,36577,6.5,72286.0,-11.59,-17.41,-17.41,0,*6C
1514927257.44,36578,6.5,72276.5,-11.55,-17.49,-17.25,0,*65
1514927258.71,36579,6.5,72292.0,-11.59,-17.03,-16.89,0,*61
1514927259.95,36580,6.5,72312.0,-11.59,-16.79,-16.79,0,*64
1514927261.21,36581,6.5,72338.3,-11.61,-16.65,-17.17,0,*6A
1514927262.49,36582,6.5,72324.5,-11.59,-17.03,-17.35,0,*63
1514927263.78,36583,6.5,72324.3,-11.59,-17.41,-17.25,0,*65
1514927265.05,36584,6.5,72316.8,-11.61,-17.45,-17.59,0,*66
1514927266.31,36585,6.5,72314.0,-11.59,-18.07,-17.55,0,*69
1514927267.58,36586,6.5,72294.3,-11.59,-17.63,-17.35,0,*61
1514927268.82,36587,6.5,72264.5,-11.57,-17.07,-16.83,0,*60
1514927270.1,36588,6.5,72272.3,-11.59,-16.13,-15.49,0,*60
1514927271.39,36589,6.5,72302.3,-11.59,-15.35,-14.47,0,*69
1514927272.63,36590,6.5,72300.3,-11.59,-14.61,-14.23,0,*63
1514927273.91,36591,6.5,72296.3,-11.59,-14.23,-14.01,0,*64
1514927275.21,36592,6.56,72318.8,-11.59,-13.97,-13.97,0,*67
1514927276.47,36593,6.5,72342.8,-11.57,-13.87,-13.97,0,*69
1514927277.71,36594,6.5,72330.3,-11.57,-13.73,-13.83,0,*60
1514927278.91,36595,6.5,72342.5,-11.57,-13.47,-14.11,0,*6A
1514927280.13,36596,6.5,72314.5,-11.57,-13.55,-15.15,0,*6F
1514927281.35,36597,6.5,72330.5,-11.57,-15.29,-17.35,0,*63
1514927282.6,36598,6.5,72320.5,-11.55,-16.55,-17.87,0,*6F
1514927283.84,36599,6.5,72326.8,-11.55,-17.49,-18.11,0,*62
1514927285.11,36600,6.5,72312.3,-11.55,-17.31,-17.45,0,*60
1514927286.37,36601,6.56,72330.8,-11.55,-16.83,-17.93,0,*62
1514927287.66,36602,6.5,72310.0,-11.55,-17.03,-17.21,0,*61
1514927288.87,36603,6.56,72306.0,-11.57,-16.89,-16.93,0,*69
1514927290.11,36604,6.5,72284.0,-11.57,-16.51,-16.75,0,*63
1514927291.37,36605,6.5,72306.0,-11.55,-16.31,-15.99,0,*67
1514927292.64,36606,6.5,72318.5,-11.57,-16.13,-15.35,0,*60
1514927293.9,36607,6.5,72332.0,-11.57,-15.57,-14.55,0,*65
1514927295.14,36608,6.5,72322.5,-11.55,-14.65,-13.55,0,*6F
1514927296.35,36609,6.5,72314.0,-11.57,-13.73,-13.23,0,*6D
1514927297.59,36610,6.5,72314.5,-11.55,-13.23,-13.11,0,*63
1514927298.83,36611,6.5,72296.3,-11.55,-13.07,-13.07,0,*63
1514927300.04,36612,6.5,72264.8,-11.57,-13.11,-13.15,0,*66
1514927301.28,36613,6.5,72264.5,-11.55,-13.07,-13.23,0,*67
1514927302.52,36614,6.5,72288.0,-11.55,-13.19,-13.51,0,*6A
1514927303.76,36615,6.56,72318.3,-11.55,-13.23,-13.93,0,*6C
1514927304.99,36616,6.5,72332.0,-11.55,-13.43,-13.93,0,*69